Time,TemperatureF,DewpointF,PressureIn,WindDirection,WindDirectionDegrees,WindSpeedMPH,WindSpeedGustMPH,Humidity,HourlyPrecipIn,Conditions,Clouds,dailyrainin,SoftwareType,DateUTC
2013-02-27 00:08:00,60.3,53.0,29.89,South,175,12.0,16.0,77,0.00,,,0.00,weatherlink.com 1.10,2013-02-27 06:08:00,
2013-02-27 00:23:00,60.5,54.0,29.89,South,180,13.0,21.0,78,0.00,,,0.00,weatherlink.com 1.10,2013-02-27 06:23:00,
2013-02-27 00:41:00,60.3,54.0,29.89,NNW,343,13.0,21.0,79,0.00,,,0.00,weatherlink.com 1.10,2013-02-27 06:41:00,
2013-02-27 00:54:00,60.2,54.0,29.89,South,185,7.0,18.0,79,0.00,,,0.00,weatherlink.com 1.10,2013-02-27 06:54:00,
2013-02-27 01:09:00,60.0,53.0,29.89,South,186,10.0,18.0,79,0.00,,,0.00,weatherlink.com 1.10,2013-02-27 07:09:00,
2013-02-27 01:24:00,59.9,53.0,29.89,South,190,11.0,18.0,79,0.00,,,0.00,weatherlink.com 1.10,2013-02-27 07:24:00,
2013-02-27 01:39:00,60.2,54.0,29.89,South,189,11.0,19.0,79,0.00,,,0.00,weatherlink.com 1.10,2013-02-27 07:39:00,
2013-02-27 01:54:00,60.3,54.0,29.89,SSW,193,14.0,16.0,79,0.00,,,0.00,weatherlink.com 1.10,2013-02-27 07:54:00,
2013-02-27 02:09:00,60.1,54.0,29.89,South,183,8.0,20.0,80,0.00,,,0.00,weatherlink.com 1.10,2013-02-27 08:09:00,
2013-02-27 02:24:00,59.7,54.0,29.89,SSW,200,9.0,14.0,82,0.00,,,0.00,weatherlink.com 1.10,2013-02-27 08:24:00,
2013-02-27 02:39:00,57.9,53.0,29.89,SSW,213,5.0,9.0,83,0.00,,,0.00,weatherlink.com 1.10,2013-02-27 08:39:00,
2013-02-27 02:54:00,56.1,52.0,29.89,SW,218,4.0,7.0,86,0.00,,,0.00,weatherlink.com 1.10,2013-02-27 08:54:00,
2013-02-27 03:09:00,55.1,51.0,29.89,SW,217,2.0,6.0,87,0.00,,,0.00,weatherlink.com 1.10,2013-02-27 09:09:00,
2013-02-27 03:24:00,54.3,51.0,29.88,SSW,208,4.0,6.0,88,0.00,,,0.00,weatherlink.com 1.10,2013-02-27 09:24:00,
2013-02-27 03:39:00,53.8,50.0,29.89,SSW,210,2.0,7.0,88,0.00,,,0.00,weatherlink.com 1.10,2013-02-27 09:39:00,
2013-02-27 03:54:00,53.5,50.0,29.88,SSW,199,2.0,4.0,89,0.00,,,0.00,weatherlink.com 1.10,2013-02-27 09:54:00,
2013-02-27 04:09:00,53.8,51.0,29.88,South,187,4.0,5.0,91,0.00,,,0.00,weatherlink.com 1.10,2013-02-27 10:09:00,
2013-02-27 04:24:00,56.3,54.0,29.87,South,169,6.0,9.0,92,0.00,,,0.00,weatherlink.com 1.10,2013-02-27 10:24:00,
2013-02-27 04:39:00,58.1,55.0,29.86,SSE,157,5.0,8.0,90,0.00,,,0.00,weatherlink.com 1.10,2013-02-27 10:39:00,
2013-02-27 04:54:00,59.1,56.0,29.87,SSE,161,4.0,9.0,88,0.00,,,0.00,weatherlink.com 1.10,2013-02-27 10:54:00,
2013-02-27 05:09:00,59.5,56.0,29.88,SSE,152,2.0,8.0,88,0.00,,,0.00,weatherlink.com 1.10,2013-02-27 11:09:00,
2013-02-27 05:24:00,59.6,56.0,29.88,SSE,160,4.0,7.0,88,0.00,,,0.00,weatherlink.com 1.10,2013-02-27 11:24:00,
2013-02-27 05:39:00,59.8,56.0,29.89,SE,142,0.0,7.0,87,0.00,,,0.00,weatherlink.com 1.10,2013-02-27 11:39:00,
2013-02-27 05:54:00,59.6,56.0,29.89,SSE,152,2.0,5.0,87,0.00,,,0.00,weatherlink.com 1.10,2013-02-27 11:54:00,
2013-02-27 06:09:00,59.6,56.0,29.90,SSE,152,2.0,4.0,88,0.00,,,0.00,weatherlink.com 1.10,2013-02-27 12:09:00,
2013-02-27 06:24:00,59.4,56.0,29.91,SSE,150,2.0,4.0,88,0.00,,,0.00,weatherlink.com 1.10,2013-02-27 12:24:00,
2013-02-27 06:39:00,59.5,56.0,29.90,SSE,161,4.0,7.0,88,0.00,,,0.00,weatherlink.com 1.10,2013-02-27 12:39:00,
2013-02-27 06:54:00,59.8,56.0,29.91,SSE,155,1.0,5.0,87,0.00,,,0.00,weatherlink.com 1.10,2013-02-27 12:54:00,
2013-02-27 07:09:00,59.9,56.0,29.92,SSE,151,0.0,1.0,86,0.00,,,0.00,weatherlink.com 1.10,2013-02-27 13:09:00,
2013-02-27 07:24:00,60.2,56.0,29.93,SSE,150,0.0,1.0,86,0.00,,,0.00,weatherlink.com 1.10,2013-02-27 13:24:00,
2013-02-27 07:39:00,60.4,56.0,29.95,NE,49,1.0,4.0,86,0.00,,,0.00,weatherlink.com 1.10,2013-02-27 13:39:00,
2013-02-27 07:54:00,60.8,57.0,29.96,NE,48,0.0,2.0,86,0.00,,,0.00,weatherlink.com 1.10,2013-02-27 13:54:00,
2013-02-27 08:09:00,60.9,57.0,29.97,NE,48,0.0,2.0,86,0.00,,,0.00,weatherlink.com 1.10,2013-02-27 14:09:00,
2013-02-27 08:25:00,61.9,58.0,29.98,NE,48,0.0,1.0,86,0.00,,,0.00,weatherlink.com 1.10,2013-02-27 14:25:00,
2013-02-27 08:40:00,63.2,58.0,29.98,NE,48,0.0,1.0,84,0.00,,,0.00,weatherlink.com 1.10,2013-02-27 14:40:00,
2013-02-27 08:55:00,65.6,59.0,29.99,NE,48,2.0,3.0,78,0.00,,,0.00,weatherlink.com 1.10,2013-02-27 14:55:00,
2013-02-27 09:10:00,66.1,58.0,30.00,WSW,252,0.0,5.0,75,0.00,,,0.00,weatherlink.com 1.10,2013-02-27 15:10:00,
2013-02-27 09:25:00,66.9,58.0,30.01,West,279,5.0,9.0,72,0.00,,,0.00,weatherlink.com 1.10,2013-02-27 15:25:00,
2013-02-27 09:40:00,66.3,57.0,30.02,NW,304,4.0,10.0,72,0.00,,,0.00,weatherlink.com 1.10,2013-02-27 15:40:00,
2013-02-27 09:55:00,66.8,57.0,30.03,NNE,16,7.0,11.0,70,0.00,,,0.00,weatherlink.com 1.10,2013-02-27 15:55:00,
2013-02-27 10:10:00,63.7,55.0,30.04,NW,323,13.0,15.0,73,0.00,,,0.00,weatherlink.com 1.10,2013-02-27 16:10:00,
2013-02-27 10:25:00,62.2,52.0,30.04,North,9,10.0,18.0,69,0.00,,,0.00,weatherlink.com 1.10,2013-02-27 16:25:00,
2013-02-27 10:40:00,62.6,52.0,30.04,NW,323,5.0,18.0,69,0.00,,,0.00,weatherlink.com 1.10,2013-02-27 16:40:00,
2013-02-27 10:55:00,63.6,53.0,30.04,NNW,333,6.0,14.0,68,0.00,,,0.00,weatherlink.com 1.10,2013-02-27 16:55:00,
2013-02-27 11:10:00,64.5,53.0,30.04,North,5,6.0,14.0,66,0.00,,,0.00,weatherlink.com 1.10,2013-02-27 17:10:00,
2013-02-27 11:25:00,65.3,53.0,30.04,North,7,6.0,12.0,64,0.00,,,0.00,weatherlink.com 1.10,2013-02-27 17:25:00,
2013-02-27 11:40:00,66.3,53.0,30.03,NNW,348,9.0,10.0,63,0.00,,,0.00,weatherlink.com 1.10,2013-02-27 17:40:00,
2013-02-27 11:55:00,67.1,53.0,30.03,North,355,6.0,10.0,61,0.00,,,0.00,weatherlink.com 1.10,2013-02-27 17:55:00,
2013-02-27 12:10:00,67.9,54.0,30.02,NNE,27,8.0,12.0,61,0.00,,,0.00,weatherlink.com 1.10,2013-02-27 18:10:00,
2013-02-27 12:25:00,68.3,53.0,30.02,NNE,31,6.0,11.0,58,0.00,,,0.00,weatherlink.com 1.10,2013-02-27 18:25:00,
2013-02-27 12:40:00,68.6,53.0,30.01,NNE,22,6.0,13.0,57,0.00,,,0.00,weatherlink.com 1.10,2013-02-27 18:40:00,
2013-02-27 12:55:00,69.6,53.0,30.01,North,2,8.0,14.0,56,0.00,,,0.00,weatherlink.com 1.10,2013-02-27 18:55:00,
2013-02-27 13:10:00,70.7,50.0,30.01,NNE,21,12.0,15.0,49,0.00,,,0.00,weatherlink.com 1.10,2013-02-27 19:10:00,
2013-02-27 13:25:00,71.6,48.0,30.01,NNW,338,11.0,18.0,44,0.00,,,0.00,weatherlink.com 1.10,2013-02-27 19:25:00,
2013-02-27 13:40:00,72.5,47.0,30.00,NW,324,6.0,15.0,41,0.00,,,0.00,weatherlink.com 1.10,2013-02-27 19:40:00,
2013-02-27 13:55:00,72.0,47.0,30.00,NNW,333,8.0,15.0,41,0.00,,,0.00,weatherlink.com 1.10,2013-02-27 19:55:00,
2013-02-27 14:10:00,73.0,47.0,30.00,NW,316,8.0,13.0,39,0.00,,,0.00,weatherlink.com 1.10,2013-02-27 20:10:00,
2013-02-27 14:25:00,73.1,46.0,30.00,NNW,338,9.0,18.0,38,0.00,,,0.00,weatherlink.com 1.10,2013-02-27 20:25:00,
2013-02-27 14:40:00,73.9,48.0,30.00,NNE,27,7.0,19.0,40,0.00,,,0.00,weatherlink.com 1.10,2013-02-27 20:40:00,
2013-02-27 14:55:00,71.5,52.0,30.00,NNE,23,8.0,14.0,51,0.00,,,0.00,weatherlink.com 1.10,2013-02-27 20:55:00,
2013-02-27 15:10:00,72.5,47.0,30.00,NNE,25,8.0,14.0,40,0.00,,,0.00,weatherlink.com 1.10,2013-02-27 21:10:00,
2013-02-27 15:25:00,70.6,53.0,30.00,ENE,73,10.0,12.0,54,0.00,,,0.00,weatherlink.com 1.10,2013-02-27 21:25:00,
2013-02-27 15:40:00,69.5,52.0,30.00,NNE,14,6.0,10.0,55,0.00,,,0.00,weatherlink.com 1.10,2013-02-27 21:40:00,
2013-02-27 15:55:00,72.1,34.0,30.00,NNE,15,16.0,23.0,25,0.00,,,0.00,weatherlink.com 1.10,2013-02-27 21:55:00,
2013-02-27 16:10:00,72.2,36.0,30.01,NNW,348,10.0,24.0,27,0.00,,,0.00,weatherlink.com 1.10,2013-02-27 22:10:00,
2013-02-27 16:26:00,71.6,39.0,30.01,NNE,17,14.0,23.0,30,0.00,,,0.00,weatherlink.com 1.10,2013-02-27 22:26:00,
2013-02-27 16:40:00,70.4,37.0,30.01,NNE,22,11.0,21.0,29,0.00,,,0.00,weatherlink.com 1.10,2013-02-27 22:40:00,
2013-02-27 16:55:00,70.1,36.0,30.02,NNE,23,14.0,19.0,29,0.00,,,0.00,weatherlink.com 1.10,2013-02-27 22:55:00,
2013-02-27 17:10:00,69.7,38.0,30.02,NNE,18,10.0,16.0,32,0.00,,,0.00,weatherlink.com 1.10,2013-02-27 23:10:00,
2013-02-27 17:25:00,69.4,40.0,30.02,NE,36,11.0,20.0,34,0.00,,,0.00,weatherlink.com 1.10,2013-02-27 23:25:00,
2013-02-27 17:40:00,68.8,41.0,30.03,North,353,19.0,23.0,37,0.00,,,0.00,weatherlink.com 1.10,2013-02-27 23:40:00,
2013-02-27 17:55:00,67.5,41.0,30.03,NE,49,10.0,19.0,38,0.00,,,0.00,weatherlink.com 1.10,2013-02-27 23:55:00,
2013-02-27 18:11:00,66.7,42.0,30.04,NNW,338,9.0,21.0,40,0.00,,,0.00,weatherlink.com 1.10,2013-02-28 00:11:00,
2013-02-27 18:26:00,66.4,40.0,30.05,NE,40,10.0,19.0,38,0.00,,,0.00,weatherlink.com 1.10,2013-02-28 00:26:00,
2013-02-27 18:41:00,65.4,41.0,30.06,NNE,19,8.0,21.0,41,0.00,,,0.00,weatherlink.com 1.10,2013-02-28 00:41:00,
2013-02-27 18:56:00,65.2,39.0,30.07,NNE,13,16.0,16.0,38,0.00,,,0.00,weatherlink.com 1.10,2013-02-28 00:56:00,
2013-02-27 19:11:00,64.6,41.0,30.08,North,4,6.0,14.0,42,0.00,,,0.00,weatherlink.com 1.10,2013-02-28 01:11:00,
2013-02-27 19:26:00,64.2,39.0,30.08,NNE,19,12.0,13.0,40,0.00,,,0.00,weatherlink.com 1.10,2013-02-28 01:26:00,
2013-02-27 19:41:00,63.8,41.0,30.09,North,8,2.0,12.0,43,0.00,,,0.00,weatherlink.com 1.10,2013-02-28 01:41:00,
2013-02-27 19:56:00,63.3,40.0,30.10,North,3,4.0,10.0,43,0.00,,,0.00,weatherlink.com 1.10,2013-02-28 01:56:00,
2013-02-27 20:11:00,62.8,42.0,30.11,North,8,6.0,13.0,46,0.00,,,0.00,weatherlink.com 1.10,2013-02-28 02:11:00,
2013-02-27 20:26:00,62.1,44.0,30.11,NNE,29,7.0,10.0,51,0.00,,,0.00,weatherlink.com 1.10,2013-02-28 02:26:00,
2013-02-27 20:41:00,61.4,44.0,30.12,NE,34,8.0,10.0,54,0.00,,,0.00,weatherlink.com 1.10,2013-02-28 02:41:00,
2013-02-27 20:56:00,60.7,43.0,30.12,NNE,15,5.0,10.0,53,0.00,,,0.00,weatherlink.com 1.10,2013-02-28 02:56:00,
2013-02-27 21:11:00,60.0,44.0,30.14,North,5,5.0,9.0,57,0.00,,,0.00,weatherlink.com 1.10,2013-02-28 03:11:00,
2013-02-27 21:26:00,59.9,44.0,30.14,NNE,29,9.0,11.0,57,0.00,,,0.00,weatherlink.com 1.10,2013-02-28 03:26:00,
2013-02-27 21:41:00,59.2,43.0,30.15,NNE,32,7.0,11.0,56,0.00,,,0.00,weatherlink.com 1.10,2013-02-28 03:41:00,
2013-02-27 21:56:00,58.8,42.0,30.15,NNE,21,12.0,14.0,54,0.00,,,0.00,weatherlink.com 1.10,2013-02-28 03:56:00,
2013-02-27 22:25:00,58.7,41.0,30.16,NE,34,9.0,13.0,52,0.00,,,0.00,weatherlink.com 1.10,2013-02-28 04:25:00,
2013-02-27 22:40:00,58.1,41.0,30.16,NNE,19,9.0,14.0,53,0.00,,,0.00,weatherlink.com 1.10,2013-02-28 04:40:00,
2013-02-27 23:11:00,57.1,41.0,30.16,North,9,8.0,11.0,55,0.00,,,0.00,weatherlink.com 1.10,2013-02-28 05:11:00,
2013-02-27 23:25:00,56.9,40.0,30.16,NE,45,7.0,14.0,54,0.00,,,0.00,weatherlink.com 1.10,2013-02-28 05:25:00,
2013-02-27 23:40:00,56.1,40.0,30.16,ENE,57,7.0,13.0,56,0.00,,,0.00,weatherlink.com 1.10,2013-02-28 05:40:00,
2013-02-27 23:55:00,55.5,39.0,30.16,NNE,21,10.0,11.0,54,0.00,,,0.00,weatherlink.com 1.10,2013-02-28 05:55:00,